sat.trackr.live / text

‹ back to catalog

GAOFEN-5 02

NORAD 49122 · 2021-079A

PAYLOAD ACTIVE UNKNOWN

§ Identity

Operator
Country
PRC
Launch date
2021-09-07
Launch site
TAISC
Launch vehicle
Mass (kg)
RCS (m²)

External: N2YO · Heavens-Above · Gunter

§ Orbital elements

Epoch: 2026-09-10T04:05:30.965856Z

Period
98.79 min
Inclination
98.2553°
Eccentricity
0.0002192
Mean motion
14.57678094 rev/d
Perigee alt
699.1 km
Apogee alt
702.2 km
Semi-major
7,078.8 km
B*
7.1245e-6
RAAN
326.8342°
Arg perigee
82.5447°
Mean anomaly
277.6001°
Rev number
26,646

§ Raw data

GAOFEN-5 021 49122U 21079A   26253.17049729 -.00000013  00000+0  71245-5 0  99922 49122  98.2553 326.8342 0002192  82.5447 277.6001 14.57678094266462

JSON: /api/v1/satellites/49122 · /tle

For live sub-satellite position, see the globe view (requires WebGL).

§ Visibility from observer

Set your observer location to see the next 7 days of passes ≥ 10°. The values pass through the URL so the page stays shareable.

No JS? Fill the form by hand. The geolocation button needs JavaScript.

§ Radio — SatNOGS DB

ModeDescriptionDownlinkUplink
BPSK S-band telemetry 2.230 GHz

1 transmitter · refreshed weekly from db.satnogs.org